Regional Weather Roundup
Issued by NWS

Home | Current Version | Previous Version | Text Only | Print | Product List | Glossary Off
Versions: 1 2 3 4 5 6 7 8 9 10 11 12 13 14 15 16 17 18 19 20 21 22 23 24 25 26 27 28 29 30 31 32 33 34 35 36 37 38 39 40 41 42 43 44 45 46 47 48 49 50

000
ASUS43 KLSX 250757
RWRMO

WEATHER SUMMARY FOR MISSOURI
NATIONAL WEATHER SERVICE SPRINGFIELD MO
300 AM CDT THU AUG 25 2016

NOTE: "FAIR" INDICATES FEW OR NO CLOUDS BELOW 12,000 FEET WITH NO
       SIGNIFICANT WEATHER AND/OR OBSTRUCTIONS TO VISIBILITY.
       CURRENT SKY AND/OR WEATHER CONDITIONS ARE NOT AVAILABLE FOR
       CHILLICOTHE AND FARMINGTON.

MOZ001>031-035>038-043-044-053-054-250900-
...NORTHERN AND WESTERN MISSOURI...

CITY           SKY/WX    TMP DP  RH WIND       PRES   REMARKS
KANSAS CTY INT CLOUDY    70  67  90 SW5       30.04R FOG
LEE`S SUMMIT   MOCLDY    70  68  93 SE7       30.05S
ST JOSEPH      CLOUDY    70  68  93 N6        30.04R

$$
MOZ066>068-077>081-088>096-101>105-250900-
...SOUTHWEST MISSOURI...

CITY           SKY/WX    TMP DP  RH WIND       PRES   REMARKS
SPRINGFIELD    CLEAR     72  67  84 S7        30.08R
JOPLIN         CLEAR     78  67  68 SW12      30.07R

$$
MOZ032>034-039>042-045>050-055>058-069>072-250900-
...CENTRAL MISSOURI...

CITY           SKY/WX    TMP DP  RH WIND       PRES   REMARKS
COLUMBIA       NOT AVBL
JEFFERSON CITY CLEAR     71  68  90 SE3       30.05F
ROLLA          CLEAR     72  70  93 W3        30.07R
SEDALIA        PTCLDY    70  68  93 N3        30.06S

$$
MOZ051-052-059>065-250900-
...EAST CENTRAL MISSOURI...

CITY           SKY/WX    TMP DP  RH WIND       PRES   REMARKS
ST LOUIS INTL  PTCLDY    81  71  71 NW9G20    30.06R

$$
MOZ072>076-082>087-097>100-106>115-250900-
...SOUTH CENTRAL AND SOUTHEAST MISSOURI...

CITY           SKY/WX    TMP DP  RH WIND       PRES   REMARKS
CAPE GIRARDEAU CLEAR     75  72  90 S5        30.06S
POPLAR BLUFF   CLEAR     76  74  93 S3        30.06S
WEST PLAINS    CLEAR     73  68  84 S3        30.12F

$$



USA.gov is the U.S. government's official web portal to all federal, state and local government web resources and services.